Temperature
30 31 31 31 30 31 30 30 30 30 30 30 30 30 29 29 28 28 27 26 26 25 24 24 23 23 22 22 21 21 20 20 19 19 19 19 18 18 18 18 17 17 17 17
29 30 31 30 31 31 31 31 30 30 30 30 30 29 28 28 28 27 26 26 25 24 24 23 23 22 22 21 21 20 20 20 19 19 19 18 18 18 18 17 17 17 17 17
28 29 29 29 30 31 31 31 30 29 30 30 29 29 28 28 27 27 26 26 25 24 23 23 22 22 21 21 20 20 20 19 19 19 18 18 18 18 17 17 17 17 17 17
27 27 26 29 31 31 31 30 31 30 30 30 30 29 28 27 27 26 26 25 24 24 23 22 22 21 21 20 20 20 19 19 19 18 18 18 18 18 17 17 17 17 17 17
26 26 27 29 30 30 30 29 30 30 30 30 29 28 27 26 26 25 25 24 24 23 23 22 21 21 20 20 20 19 19 19 18 18 18 18 18 17 17 17 17 16 16 16
26 25 26 28 30 30 30 28 29 29 29 29 28 28 27 26 25 25 24 24 23 23 22 22 21 21 20 19 19 19 19 18 18 18 18 18 17 17 17 17 16 16 16 16
25 25 27 28 29 29 27 26 27 27 27 27 27 27 26 25 25 24 24 23 23 22 22 21 20 20 20 19 19 18 18 18 18 18 18 17 17 17 17 16 16 16 15 16
25 25 25 27 28 27 26 26 26 26 26 25 25 25 25 24 24 24 23 23 22 22 21 20 20 20 19 19 18 18 18 18 17 17 17 17 17 17 16 16 16 15 15 15
25 25 25 26 26 26 26 26 25 25 25 25 24 24 24 23 23 23 22 22 21 21 20 20 19 19 19 18 18 18 17 17 17 17 17 17 17 16 16 16 15 15 15 15
24 25 25 25 25 25 25 24 24 24 24 24 24 23 23 22 22 22 22 21 21 20 20 19 19 19 18 18 18 17 17 17 17 17 17 17 16 16 16 15 15 15 15 15
23 24 24 24 24 24 24 24 23 23 23 23 23 22 22 21 21 21 21 20 20 19 19 18 18 18 18 18 17 17 17 17 16 16 17 16 16 16 16 16 15 15 15 15
22 22 22 22 22 23 23 22 22 22 22 22 22 21 21 21 20 19 19 19 19 19 18 18 18 17 17 17 17 17 17 16 16 16 16 16 16 16 16 15 15 15 15 15
21 21 21 21 21 21 21 21 21 21 21 21 21 21 20 20 19 19 19 18 18 18 18 17 17 17 17 17 17 17 17 16 16 16 16 16 16 16 16 15 15 15 15 15
19 20 20 20 20 20 20 20 21 21 20 20 20 20 20 19 19 18 18 17 17 17 17 17 17 17 16 16 16 16 16 16 16 16 16 16 16 16 16 16 15 15 15 14
19 19 19 19 19 19 19 19 19 20 20 19 19 19 19 19 18 18 17 17 17 17 16 16 16 16 16 16 16 16 16 16 16 16 16 16 16 16 15 15 15 15 14 14
18 18 18 18 18 18 18 18 18 18 18 18 18 18 18 18 17 17 17 16 16 16 16 16 16 16 15 15 15 15 16 16 15 15 15 15 15 15 15 15 15 14 14 14
17 17 17 17 17 17 17 17 18 18 18 18 17 17 17 17 17 16 16 16 16 15 15 15 15 15 15 15 15 15 15 15 15 15 15 15 15 15 15 15 14 14 14 14
16 16 16 16 16 17 17 17 17 17 17 17 17 16 16 16 16 16 15 15 15 15 15 14 14 14 14 14 14 14 15 15 15 15 15 15 15 15 14 14 14 14 14 14
15 15 15 15 16 16 16 16 16 16 16 16 16 16 15 15 15 15 15 14 14 14 14 14 14 14 14 14 14 14 14 14 14 14 14 14 14 14 14 14 14 14 13 13
15 15 15 15 15 15 15 15 15 15 15 15 15 15 15 15 14 14 14 14 14 14 14 14 14 13 13 13 13 14 14 14 14 14 14 14 14 14 14 14 14 13 13 13
15 14 14 14 14 15 15 15 15 15 14 14 14 14 14 14 14 14 14 14 13 14 14 14 13 13 13 13 13 13 13 14 14 13 13 13 14 13 13 13 13 13 13 13
14 14 14 14 14 14 14 14 14 14 14 14 14 14 14 14 14 13 13 13 13 13 13 13 13 13 13 13 13 13 13 13 13 13 13 13 13 13 13 13 13 13 12 12
13 13 13 13 13 13 13 14 14 14 14 14 14 13 13 13 13 13 13 13 13 13 13 13 13 13 13 13 13 13 13 13 13 12 12 13 13 13 13 12 12 12 12 12
12 12 12 12 13 13 13 13 13 13 13 13 13 13 13 13 13 13 13 13 13 13 13 13 13 13 13 12 12 12 12 12 12 12 12 12 12 12 12 12 12 12 12 11
12 12 12 12 12 12 12 13 13 13 13 13 13 13 13 13 13 13 13 13 13 13 12 12 12 12 12 12 12 12 12 12 12 12 12 12 12 12 11 11 11 11 11 11
11 12 12 12 12 12 12 12 12 12 12 13 13 13 13 13 13 13 13 13 13 13 12 12 12 12 12 12 12 12 12 12 12 11 11 11 11 11 11 11 11 11 11 11
11 11 11 11 12 12 12 12 12 12 12 12 12 12 12 13 13 13 12 12 12 12 12 12 12 12 12 12 12 12 12 12 12 11 11 11 11 11 11 11 11 11 10 10
Wind_Speed
15 14 13 12 13 14 15 15 14 11 9 6 3 3 3 5 5 7 6 7 7 7 7 7 7 7 6 6 6 7 8 8 8 7 6 5 5 5 4 4 5 4 4 3
15 16 16 16 15 16 17 14 13 12 9 5 3 2 3 5 6 6 6 6 6 7 8 7 7 7 7 6 6 6 7 7 7 6 6 5 5 5 4 4 4 4 4 5
14 15 16 19 15 13 12 12 10 11 9 6 4 5 5 4 3 5 6 6 7 7 7 6 6 7 7 6 6 7 6 5 6 6 6 5 6 5 5 5 5 5 5 4
13 13 18 14 11 11 10 10 9 9 7 6 5 4 3 3 2 3 5 5 6 6 8 8 7 6 6 7 6 6 6 6 6 6 5 5 5 5 5 4 4 4 4 4
12 15 17 14 10 10 11 10 7 6 5 3 2 3 3 4 4 4 5 4 4 5 6 7 7 7 6 7 6 6 6 6 6 5 5 5 5 4 4 4 4 4 4 4
13 16 17 11 7 7 9 8 6 5 5 5 4 5 3 2 4 3 5 5 5 4 5 7 6 8 7 7 6 6 5 5 5 5 5 5 5 4 4 4 4 4 3 3
16 17 14 10 8 8 10 5 4 6 5 4 4 3 1 2 2 3 3 5 5 5 5 5 5 6 6 6 6 5 4 4 5 4 5 5 5 4 4 4 4 3 3 3
14 16 12 7 6 6 4 2 2 3 4 4 5 5 4 2 2 2 2 4 5 5 5 5 5 6 6 5 5 5 4 4 5 5 5 5 5 4 4 4 3 4 4 3
9 7 3 4 5 6 5 3 2 3 2 3 3 2 2 2 2 1 3 3 3 4 4 4 5 5 6 5 5 5 5 5 5 5 4 5 5 5 5 4 4 4 4 4
9 8 7 6 6 5 5 4 4 4 4 3 2 1 1 1 1 0 2 4 4 4 4 4 3 4 4 5 5 5 5 4 5 5 5 5 4 5 4 4 3 3 3 3
10 9 9 8 7 7 6 5 5 4 3 3 3 2 1 1 1 1 1 1 2 3 4 4 3 2 3 4 5 5 5 4 5 5 5 5 4 3 4 3 3 4 3 2
9 7 7 7 7 7 7 6 7 6 4 3 4 3 2 1 1 2 1 1 2 2 3 4 4 3 3 4 4 5 5 5 4 4 4 5 5 3 2 2 4 4 2 1
9 10 9 8 8 7 7 7 6 5 4 4 3 2 2 2 2 3 2 2 3 3 3 3 4 3 3 4 4 4 4 4 4 4 4 4 4 4 3 2 3 2 3 3
9 9 9 9 7 8 8 8 7 6 5 4 4 3 3 3 2 2 3 3 3 3 3 3 3 3 3 4 4 4 4 5 4 3 3 3 3 4 3 4 3 3 3 5
9 9 9 9 8 8 8 8 8 6 5 5 4 4 4 3 3 2 2 3 3 3 4 4 3 2 2 4 4 4 4 4 3 2 2 2 2 2 2 2 2 2 3 3
9 9 9 9 9 8 8 8 8 7 6 6 5 4 4 4 3 3 3 3 4 4 3 3 3 2 2 3 4 4 4 5 4 3 3 3 3 3 2 2 2 2 2 2
8 9 9 10 9 9 9 8 8 7 7 7 6 4 3 4 4 4 4 4 4 3 4 3 3 2 2 3 4 4 4 4 5 4 3 3 3 3 2 2 2 3 3 4
7 9 9 9 9 9 9 8 7 7 7 6 5 4 4 5 5 5 5 4 3 3 3 3 3 3 3 3 3 3 4 4 4 4 3 3 3 3 3 3 3 3 2 4
8 9 9 9 9 9 8 7 7 6 5 4 4 4 4 4 4 4 4 4 4 5 4 3 4 5 4 3 3 3 4 4 3 3 3 3 4 4 3 3 3 3 2 3
7 7 8 9 9 8 6 5 5 5 4 3 3 3 3 3 3 4 4 5 5 4 4 4 4 4 4 3 4 4 4 4 4 3 3 4 4 4 4 4 4 3 3 3
6 6 6 6 7 6 6 6 4 3 3 2 2 3 3 3 3 3 4 5 3 3 3 5 5 4 4 3 5 5 5 4 4 4 4 4 4 4 4 4 4 3 3 3
6 5 6 6 5 5 5 4 3 3 3 2 2 2 3 3 4 4 4 4 3 4 4 4 4 4 3 4 5 4 4 4 4 4 4 4 4 4 4 4 3 3 3 3
5 5 5 5 5 5 5 3 3 3 3 3 2 2 3 3 3 3 4 3 3 5 5 5 4 5 5 5 4 4 4 4 4 4 4 4 4 4 4 4 4 3 3 3
4 4 4 4 4 4 4 4 3 3 3 2 3 3 4 3 3 4 3 4 5 6 5 4 7 7 6 5 5 5 4 4 4 4 4 4 4 4 4 4 4 3 3 3
4 4 4 3 3 3 3 3 2 2 1 1 2 3 3 2 3 3 2 3 6 6 5 6 9 9 7 6 5 5 5 5 4 4 4 4 4 4 4 4 3 3 3 2
4 3 3 3 3 3 3 2 1 2 2 2 2 2 3 2 3 2 2 3 5 5 4 4 5 6 6 6 6 5 5 5 5 5 5 5 4 4 4 4 4 3 3 2
4 3 2 2 2 3 2 1 1 1 2 2 2 2 2 2 2 2 2 2 3 4 3 3 4 5 5 4 4 4 4 4 5 5 4 4 3 3 4 4 3 3 2 2
Wind_Direction
264 268 267 259 251 247 247 253 259 259 252 251 221 201 178 146 148 153 163 171 155 149 142 142 143 148 152 163 165 165 165 172 179 181 180 179 181 180 183 191 196 188 191 205
264 262 262 263 253 250 249 248 253 265 264 251 233 208 169 159 156 153 166 164 147 145 145 147 150 153 153 161 160 156 161 170 170 170 173 179 183 177 184 192 191 188 199 206
270 270 270 257 256 257 259 259 252 259 262 253 217 211 196 175 170 160 161 159 150 153 154 158 155 151 157 163 157 155 157 164 163 167 173 178 190 182 191 195 195 198 202 196
267 268 261 262 270 273 264 261 261 256 247 234 231 215 166 149 165 159 163 163 155 167 162 161 161 154 157 160 157 161 164 166 168 171 176 180 179 183 192 194 198 202 203 199
264 260 257 258 262 260 261 262 271 277 281 254 211 226 162 134 141 150 154 154 161 175 163 149 158 157 160 167 166 169 172 172 173 174 181 182 179 185 188 189 194 200 196 196
252 257 259 263 279 293 281 264 285 291 290 283 253 243 232 148 139 158 153 157 156 160 155 153 159 157 163 171 170 176 178 177 174 174 181 183 181 181 188 190 197 204 193 193
250 255 257 276 284 279 264 272 340 337 335 310 312 324 63 130 139 153 154 154 151 153 151 151 157 155 163 173 175 175 175 175 174 179 185 175 171 182 186 193 197 200 205 204
246 254 257 298 291 282 299 4 349 336 360 2 360 17 38 63 108 139 153 156 154 142 140 147 158 162 171 169 164 161 169 175 174 181 192 179 172 184 188 188 196 199 210 213
253 253 263 297 293 295 310 312 313 307 337 358 340 7 23 33 38 91 139 140 152 143 138 143 154 164 173 164 156 161 170 174 174 183 183 167 174 182 188 190 206 211 212 224
271 263 279 290 289 295 308 316 315 325 341 336 328 320 356 6 358 45 117 142 154 147 147 144 151 163 160 154 157 164 170 175 178 177 176 167 180 188 191 189 199 212 219 231
277 277 278 277 289 296 308 312 308 301 303 311 319 320 339 333 348 56 78 120 138 147 151 149 142 153 159 150 159 169 174 182 190 189 182 171 172 184 188 187 195 211 223 218
280 301 295 299 298 285 286 292 292 291 299 297 297 295 291 271 170 162 188 157 156 168 163 158 157 160 161 160 170 176 184 193 203 199 181 174 173 161 91 152 149 149 150 155
296 297 294 297 296 307 298 284 281 289 291 287 272 247 245 242 209 166 163 179 186 186 168 164 167 170 180 180 183 185 197 201 211 210 195 189 188 184 179 151 138 150 170 171
300 294 292 290 292 298 297 296 289 278 271 271 262 236 226 223 205 173 180 197 198 186 176 178 182 184 192 188 186 192 211 209 214 209 208 203 202 203 193 185 182 191 197 185
290 292 285 286 287 287 293 292 289 277 269 263 255 236 222 206 202 195 189 186 185 193 188 193 195 200 199 195 188 196 221 226 207 210 213 204 212 216 204 198 203 180 162 163
284 287 287 283 283 287 289 288 284 277 280 271 262 247 218 208 206 186 185 189 196 204 196 195 201 216 206 206 199 205 219 224 216 220 222 212 211 208 192 189 207 205 191 171
280 279 280 280 280 280 278 276 277 279 273 265 260 248 225 212 193 189 200 201 192 185 190 193 202 205 208 213 214 223 227 209 200 209 219 219 217 209 197 195 213 224 206 165
283 283 281 282 280 276 274 270 270 273 272 260 249 240 230 219 210 200 200 199 200 201 208 201 199 203 210 216 218 234 233 214 207 201 197 202 211 211 205 211 221 235 217 176
283 282 279 280 284 277 275 274 272 270 278 270 241 232 233 225 211 199 195 195 202 215 219 206 196 205 205 189 200 219 232 221 216 211 210 199 211 221 210 216 228 234 224 192
286 286 285 287 287 284 280 277 267 264 263 254 225 217 222 226 219 207 200 207 213 215 195 188 195 206 206 192 207 229 224 220 219 214 217 224 225 225 221 222 224 215 219 216
290 288 290 292 294 294 284 274 266 266 266 254 230 216 215 223 224 213 212 217 210 198 200 188 199 209 208 206 215 228 224 216 209 207 220 233 239 233 228 228 226 220 216 220
306 298 297 300 304 304 293 279 265 254 247 244 240 222 218 222 222 216 211 224 219 185 198 202 203 196 199 211 227 228 221 210 208 215 224 228 236 240 235 229 220 219 209 199
311 309 312 313 306 298 289 281 269 260 245 237 238 230 237 249 233 221 223 224 219 198 205 212 194 176 182 210 229 231 227 220 219 225 228 228 234 240 237 231 225 217 208 207
312 316 312 305 299 292 275 267 263 260 243 230 235 232 234 233 233 226 221 204 206 199 211 186 173 183 197 217 226 225 226 226 228 234 237 234 229 225 232 235 229 219 208 207
318 311 309 316 310 304 292 291 289 285 254 244 242 229 231 226 236 245 241 211 184 191 202 177 179 189 206 225 226 222 218 216 221 224 231 229 224 218 217 224 220 220 223 220
314 304 304 297 301 309 299 288 278 282 281 266 253 244 231 209 217 227 220 183 180 188 200 188 186 196 217 227 224 225 223 206 207 219 224 221 219 219 224 225 222 221 215 214
320 325 324 303 308 317 306 286 273 260 262 256 249 247 248 234 223 215 214 209 189 189 197 194 198 204 217 224 222 225 224 218 218 221 214 209 214 216 218 218 219 214 208 207
Height
1449 1446 1445 1448 1449 1450 1454 1456 1462 1459 1459 1457 1455 1457 1460 1462 1466 1469 1473 1476 1478 1482 1484 1487 1490 1493 1496 1499 1502 1505 1506 1508 1511 1513 1515 1517 1518 1519 1520 1521 1522 1523 1524 1524
1454 1448 1446 1448 1446 1446 1447 1447 1451 1453 1455 1450 1452 1456 1460 1463 1465 1469 1472 1475 1478 1481 1484 1486 1489 1492 1494 1498 1500 1503 1505 1507 1509 1510 1512 1514 1515 1516 1517 1518 1519 1520 1521 1521
1461 1450 1449 1454 1444 1443 1444 1442 1447 1455 1452 1450 1452 1457 1459 1461 1464 1466 1470 1474 1477 1480 1482 1485 1488 1490 1493 1496 1498 1501 1503 1505 1506 1508 1509 1511 1513 1513 1514 1515 1516 1516 1517 1518
1461 1462 1473 1449 1435 1437 1440 1442 1441 1444 1445 1447 1451 1454 1457 1460 1462 1465 1468 1472 1475 1478 1480 1484 1487 1489 1491 1494 1496 1498 1500 1502 1504 1505 1507 1508 1509 1510 1511 1512 1513 1513 1514 1515
1464 1466 1459 1444 1437 1438 1443 1445 1442 1443 1445 1447 1450 1453 1456 1459 1462 1465 1467 1470 1473 1476 1478 1481 1484 1487 1489 1492 1494 1496 1498 1499 1501 1502 1504 1505 1506 1507 1508 1509 1510 1510 1511 1511
1462 1468 1466 1449 1438 1438 1442 1450 1444 1445 1447 1449 1450 1454 1456 1457 1460 1464 1467 1469 1472 1474 1477 1479 1481 1484 1487 1489 1491 1493 1495 1497 1498 1500 1501 1502 1503 1504 1505 1506 1507 1508 1508 1508
1459 1461 1451 1442 1439 1440 1455 1456 1449 1449 1450 1451 1453 1453 1456 1458 1460 1463 1465 1468 1470 1472 1475 1477 1480 1482 1484 1487 1488 1490 1492 1494 1496 1497 1498 1500 1501 1502 1503 1504 1504 1505 1505 1505
1456 1461 1458 1443 1442 1447 1450 1449 1450 1451 1452 1454 1454 1455 1456 1458 1459 1462 1464 1467 1469 1471 1473 1476 1478 1480 1482 1485 1486 1488 1490 1492 1493 1495 1496 1497 1498 1499 1501 1501 1502 1502 1503 1503
1449 1451 1448 1447 1447 1448 1448 1450 1451 1452 1452 1454 1455 1456 1457 1459 1460 1462 1463 1466 1468 1470 1473 1475 1477 1478 1481 1482 1484 1486 1488 1489 1490 1492 1493 1494 1495 1497 1498 1499 1499 1500 1501 1500
1446 1445 1445 1447 1447 1449 1449 1450 1451 1452 1453 1454 1456 1457 1458 1459 1460 1462 1463 1465 1468 1469 1471 1473 1475 1477 1479 1481 1482 1484 1485 1487 1488 1489 1491 1492 1493 1494 1495 1496 1496 1497 1498 1498
1447 1446 1447 1447 1448 1450 1450 1450 1451 1453 1454 1455 1455 1457 1458 1459 1461 1461 1463 1465 1467 1469 1470 1472 1474 1475 1477 1478 1480 1481 1483 1485 1486 1488 1489 1490 1491 1492 1492 1493 1494 1495 1494 1495
1449 1448 1450 1448 1449 1449 1450 1451 1452 1452 1452 1454 1455 1456 1458 1459 1460 1462 1464 1465 1467 1468 1470 1471 1472 1474 1475 1477 1478 1479 1481 1483 1485 1486 1487 1488 1489 1489 1490 1491 1491 1492 1492 1493
1449 1449 1449 1447 1447 1448 1449 1450 1450 1451 1452 1453 1454 1455 1457 1458 1459 1461 1463 1464 1465 1466 1467 1469 1471 1472 1473 1475 1476 1477 1478 1480 1483 1484 1485 1485 1486 1487 1487 1488 1489 1489 1489 1489
1449 1448 1447 1447 1447 1448 1448 1449 1449 1450 1451 1451 1452 1453 1454 1456 1457 1459 1460 1462 1463 1464 1466 1467 1468 1470 1471 1472 1473 1474 1476 1478 1479 1481 1482 1483 1484 1484 1484 1485 1485 1485 1486 1486
1447 1447 1446 1446 1446 1447 1447 1447 1447 1448 1448 1449 1449 1450 1452 1453 1454 1456 1457 1459 1461 1462 1463 1465 1466 1467 1468 1469 1471 1472 1473 1475 1476 1478 1479 1480 1481 1481 1482 1482 1483 1483 1483 1483
1444 1444 1444 1444 1444 1444 1445 1445 1445 1445 1446 1447 1447 1448 1448 1450 1452 1453 1455 1457 1458 1459 1460 1462 1463 1464 1465 1466 1467 1469 1470 1472 1473 1475 1476 1477 1478 1479 1479 1480 1480 1480 1481 1481
1442 1442 1442 1442 1441 1441 1442 1442 1443 1443 1444 1445 1445 1445 1446 1447 1449 1450 1452 1454 1455 1456 1457 1459 1460 1461 1462 1463 1465 1466 1468 1468 1470 1471 1473 1474 1475 1476 1477 1477 1477 1478 1479 1479
1440 1440 1440 1440 1439 1439 1439 1440 1440 1441 1441 1441 1441 1442 1444 1445 1446 1447 1449 1450 1452 1453 1455 1456 1457 1458 1460 1461 1462 1463 1465 1466 1466 1467 1469 1471 1472 1473 1473 1474 1474 1475 1475 1476
1437 1437 1437 1437 1437 1437 1436 1436 1436 1436 1436 1437 1438 1439 1441 1442 1443 1444 1445 1447 1448 1450 1451 1453 1454 1455 1456 1457 1458 1459 1461 1462 1464 1465 1466 1467 1469 1470 1470 1471 1472 1473 1472 1473
1434 1434 1434 1433 1433 1432 1432 1432 1433 1433 1433 1434 1435 1436 1438 1439 1440 1441 1442 1443 1444 1446 1448 1449 1450 1452 1453 1453 1455 1456 1457 1459 1460 1461 1463 1464 1465 1466 1467 1468 1469 1470 1470 1471
1432 1431 1430 1430 1429 1429 1429 1429 1429 1430 1430 1431 1432 1433 1435 1436 1437 1438 1439 1441 1442 1443 1445 1446 1447 1448 1450 1450 1451 1452 1454 1455 1457 1458 1459 1460 1462 1463 1464 1465 1466 1467 1468 1468
1430 1429 1429 1428 1427 1427 1426 1427 1427 1427 1427 1428 1429 1431 1432 1433 1434 1435 1436 1437 1439 1440 1441 1442 1443 1444 1446 1447 1448 1449 1451 1452 1453 1455 1456 1457 1458 1459 1461 1462 1463 1464 1465 1465
1427 1427 1426 1426 1425 1425 1424 1424 1425 1425 1425 1426 1427 1428 1429 1430 1431 1432 1433 1434 1435 1436 1437 1438 1440 1441 1442 1444 1445 1446 1447 1449 1450 1451 1452 1453 1455 1456 1457 1458 1459 1460 1461 1462
1425 1424 1424 1424 1423 1423 1422 1422 1423 1423 1423 1424 1425 1426 1427 1427 1428 1429 1430 1430 1431 1432 1433 1435 1436 1437 1439 1440 1442 1443 1444 1446 1447 1448 1449 1450 1451 1452 1453 1454 1455 1456 1457 1458
1423 1423 1423 1422 1422 1421 1421 1421 1421 1421 1421 1422 1423 1423 1424 1425 1425 1426 1427 1427 1428 1429 1430 1431 1432 1434 1436 1437 1439 1440 1441 1442 1443 1444 1445 1446 1447 1448 1449 1450 1451 1452 1453 1454
1422 1422 1421 1421 1421 1421 1420 1420 1421 1421 1421 1421 1421 1422 1422 1423 1424 1424 1425 1425 1425 1426 1427 1428 1429 1431 1432 1433 1435 1436 1437 1439 1439 1440 1442 1443 1444 1445 1446 1447 1448 1448 1449 1450
1421 1421 1420 1420 1420 1420 1419 1419 1419 1420 1420 1420 1420 1420 1421 1421 1422 1423 1423 1424 1424 1425 1426 1426 1427 1428 1429 1430 1431 1432 1434 1435 1436 1437 1438 1439 1440 1441 1442 1443 1444 1445 1445 1446